This demonstration page uses our WeatherBlox Daily Observations layout. Learn more.

Left ArrowRight Arrow

39.92423, -83.80882

Hourly Observations for June 3, 2021

Temp ( °F °C ) Dew Point ( °F °C ) Humidity (%) Winds ( mph kmh ) Pressure ( in mb ) Visibility ( mi km ) Precip ( " mm )
12:56 am 00:56 Cloudy with Haze 63 17 N/A N/A SW 9 15 29.95 1014 4 6 0.00 0.00
1:56 am 01:56 Cloudy with Haze 63 17 N/A N/A SSW 7 11 29.94 1014 5 8 0.02 0.51
2:56 am 02:56 Cloudy with Haze 64 18 N/A N/A S 6 9 29.93 1013 6 10 0.01 0.25
3:56 am 03:56 Cloudy 64 18 N/A N/A SW 6 9 29.92 1013 8 13 N/A
4:24 am 04:24 Cloudy 64 18 N/A N/A SSW 5 7 29.91 1013 10 16 N/A
4:56 am 04:56 Cloudy with Light Rain 64 18 N/A N/A SSW 5 7 29.92 1013 8 13 0.00 0.00
5:56 am 05:56 Cloudy 63 17 N/A N/A SSW 5 7 29.91 1013 9 14 0.01 0.25
6:47 am 06:47 Cloudy with Haze 63 17 N/A N/A W 5 7 29.90 1013 6 10 N/A
6:56 am 06:56 Cloudy with Haze 63 17 N/A N/A W 5 7 29.92 1013 5 8 N/A
7:08 am 07:08 Cloudy with Mist and Fog 63 17 N/A N/A SSE 7 11 29.90 1013 2 3 N/A
7:15 am 07:15 Cloudy with Light Rain 63 17 N/A N/A SSE 8 13 29.90 1013 3 5 0.00 0.00
7:56 am 07:56 Cloudy 64 18 N/A N/A S 7 11 29.93 1013 7 11 0.00 0.00
8:23 am 08:23 Cloudy with Haze 64 18 N/A N/A S 5 7 29.91 1013 5 8 N/A
8:44 am 08:44 Cloudy with Mist and Fog 64 18 N/A N/A SW 7 11 29.91 1013 3 4 N/A
8:56 am 08:56 Cloudy with Mist and Fog 64 18 N/A N/A SSW 6 9 29.93 1014 2 3 N/A
9:13 am 09:13 Cloudy with Haze 64 18 N/A N/A SSW 6 9 29.92 1013 4 6 N/A
9:35 am 09:35 Cloudy with Light Rain 64 18 N/A N/A SSW 6 9 29.92 1013 3 4 0.00 0.00
9:45 am 09:45 Cloudy with Light Rain 64 18 N/A N/A SSW 8 13 29.92 1013 3 5 0.00 0.00
9:56 am 09:56 Cloudy with Light Rain 64 18 N/A N/A SW 7 11 29.94 1014 4 6 0.00 0.00
10:27 am 10:27 Cloudy with Haze 66 19 N/A N/A SSW 7 11 29.92 1013 5 8 N/A
10:46 am 10:46 Cloudy with Haze 66 19 N/A N/A SSW 8 13 29.92 1013 6 10 N/A
10:56 am 10:56 Cloudy with Haze 66 19 N/A N/A SSW 7 11 29.93 1014 6 10 N/A
11:32 am 11:32 Cloudy with Rain 66 19 N/A N/A SW 8 13 29.92 1013 3 5 N/A
11:56 am 11:56 Cloudy with Light Rain 66 19 N/A N/A SSW 5 7 29.93 1014 4 6 N/A
12:12 pm 12:12 Cloudy with Thunderstorms 64 18 N/A N/A S 8 13 29.92 1013 4 6 0.00 0.00
12:56 pm 12:56 Cloudy with Light Rain 66 19 N/A N/A SSW 5 7 29.93 1013 4 6 0.03 0.76
1:03 pm 13:03 Cloudy with Light Rain 66 19 N/A N/A SSW 5 7 29.91 1013 5 8 0.01 0.25
1:12 pm 13:12 Cloudy with Light Rain 66 19 N/A N/A SSW 8 13 29.92 1013 6 10 0.01 0.25
1:19 pm 13:19 Cloudy with Light Rain 66 19 N/A N/A SSW 5 7 29.91 1013 6 10 0.01 0.25
1:26 pm 13:26 Mostly Cloudy with Light Rain 66 19 N/A N/A S 6 9 29.91 1013 7 11 0.02 0.51
1:40 pm 13:40 Mostly Cloudy 68 20 N/A N/A SSW 7 11 29.90 1013 9 14 0.03 0.76
1:56 pm 13:56 Cloudy 68 20 N/A N/A SSW 6 9 29.92 1013 10 16 0.04 1.02
2:28 pm 14:28 Cloudy 68 20 68 20 100 100 SSW 7 11 29.89 1012 10 16 0.01 0.25
2:56 pm 14:56 Cloudy 69 20.6 69 20.6 100 100 SW 10 17 29.90 1013 10 16 0.01 0.25
3:06 pm 15:06 Cloudy 70 21 70 21 100 100 SW 8 13 29.88 1012 10 16 N/A
3:35 pm 15:35 Mostly Cloudy 70 21 70 21 100 100 SW 8 13 29.88 1012 10 16 N/A
3:56 pm 15:56 Mostly Cloudy with Thunderstorms 68 20 68 20 100 100 SSW 7 11 29.90 1013 10 16 N/A
4:15 pm 16:15 Cloudy with Thunderstorms 66 19 66 19 100 100 W 10 17 29.89 1012 10 16 0.00 0.00
4:31 pm 16:31 Cloudy with Nearby Thunderstorms 66 19 66 19 100 100 WNW 9 15 29.89 1012 10 16 0.00 0.00
4:45 pm 16:45 Cloudy with Light Rain 64 18 N/A N/A WNW 9 15 29.88 1012 10 16 0.00 0.00
4:56 pm 16:56 Cloudy with Light Rain 64 18 N/A N/A WNW 10 17 29.88 1012 10 16 0.01 0.25
5:25 pm 17:25 Cloudy 66 19 N/A N/A W 8 13 29.88 1012 10 16 0.01 0.25
5:53 pm 17:53 Cloudy 66 19 N/A N/A WSW 5 7 29.89 1012 10 16 0.01 0.25
5:56 pm 17:56 Cloudy 66 19 N/A N/A SW 5 7 29.90 1013 10 16 0.02 0.51
6:06 pm 18:06 Cloudy 64 18 N/A N/A WSW 7 11 29.89 1012 10 16 N/A
6:56 pm 18:56 Partly Cloudy 66 18.9 66 18.9 100 100 W 9 15 29.90 1013 10 16 0.01 0.25
7:56 pm 19:56 Mostly Sunny 64 18 N/A N/A W 5 7 29.90 1013 10 16 0.02 0.51
8:56 pm 20:56 Mostly Cloudy 64 18 N/A N/A SSW 5 7 29.92 1013 10 16 0.01 0.25
9:56 pm 21:56 Cloudy 63 17 N/A N/A N N/A 29.93 1014 10 16 0.01 0.25
10:56 pm 22:56 Cloudy 63 17 N/A N/A W 5 7 29.96 1015 10 16 0.01 0.25
11:56 pm 23:56 Mostly Clear 63 17 N/A N/A SW 5 7 29.97 1015 10 16 0.01 0.25

Powered by AerisWeather